TITAN 3C TRANSTAGE DEB, 19595

Orbit data source: Space-Track

TITAN 3C TRANSTAGE DEB, 19595 is space debris in HEO originally from a launch on Tue, 21 Dec 1965 UTC launched from the Air Force Eastern Test Range (AFETR). Debris objects in space refer to the collection of defunct objects orbiting the Earth. Examples of debris include non-operational satellites, rocket bodies, and fragments generated from explosions, collisions, or faulty payload assembly.

Loading next visibility...
Identifier
19595, 1965-108AB
Orbit
HEO
Country
Flag of USUS
Related business
Manufacturer
Unknown
Mission
Spacecraft
Bus & Motor
Unknown
Mass
Unknown
Launch date (UTC)
1965-12-21 (60 years ago)
Launch vehicle
Unknown
Launch site
Air Force Eastern Test Range (AFETR)
Object type
Payload
Rocket body
Debris
Shape & HBR
Unknown
Radar Cross Section
Small (<0.1 m²)

Expand to show TLE details & history
Last TLE update: 3 days ago

TLE from 3 days ago
0 TITAN 3C TRANSTAGE DEB
1 19595U 65108AB  25258.68731590  .00006430  00000-0  44016-2 0  9990
2 19595  27.0557 350.5925 5973626 207.2809 101.6660  4.00534811185990
Epoch: 2025-09-15T16:29Z
TLE epoch observation values (Epoch: 2025-09-15T16:29:44.093Z)
Latitude
0.00006°
Longitude
108.2751°
Altitude
16,601.052 km
Speed
3.301 km/s
True Right ascension
23h 22m 23s
True Declination
0° 00' 00"
Sunlit
Object was in full shadow at epoch
Visualization orbit readout
Latitude
Unknown
Longitude
Unknown
Altitude
Unknown
Speed
Unknown
Apparent Right ascension
Unknown
Apparent Declination
Unknown
Sunlit
N/A
Visualization observer readout
Local Sidereal Time
01:24:20
Azimuth
Unknown
Elevation
Unknown
Doppler factor
Unknown
Orbital elements
Apogee altitude
20,380.867 km
Perigee altitude
366.841 km
Semi-major axis
16,751.991 km
Eccentricity
0.59736
Inclination
27.0557°
RAAN
350.5925°
Arg. of periapsis
207.2809°
True anomaly
152.75356°
Mean anomaly
101.666°
Eccentric anomaly
128.46488°
Mean motion
1.00102 °/min
Orbital period
359.63 mins
BSTAR
0.0044016
Loading maneuver chart data...
Computing Atmospheric mass density...

Documentation

Showing up to 5 results
|